TimeEST,TemperatureF,Dew PointF,Humidity,Sea Level PressureIn,VisibilityMPH,Wind Direction,Wind SpeedMPH,Gust SpeedMPH,PrecipitationIn,Events,Conditions,WindDirDegrees,DateUTC
12:55 AM,26.6,22.6,85,30.25,10.0,NE,3.5,-,N/A,,Clear,40,2012-12-07 05:55:00
1:55 AM,27.7,23.2,83,30.24,10.0,Calm,Calm,-,N/A,,Scattered Clouds,0,2012-12-07 06:55:00
2:55 AM,30.2,23.4,76,30.24,10.0,Calm,Calm,-,N/A,,Overcast,0,2012-12-07 07:55:00
3:55 AM,30.9,25.9,82,30.20,10.0,ENE,3.5,-,N/A,,Overcast,70,2012-12-07 08:55:00
4:55 AM,31.6,26.4,81,30.19,10.0,Calm,Calm,-,N/A,,Overcast,0,2012-12-07 09:55:00
5:38 AM,32.0,26.6,80,30.19,10.0,Calm,Calm,-,N/A,,Overcast,0,2012-12-07 10:38:00
5:55 AM,32.0,28.8,88,30.19,10.0,Calm,Calm,-,0.00,Rain,Light Rain,0,2012-12-07 10:55:00
6:52 AM,32.0,30.2,93,30.19,10.0,Calm,Calm,-,N/A,,Overcast,0,2012-12-07 11:52:00
6:55 AM,32.2,30.7,94,30.19,10.0,Calm,Calm,-,0.01,,Overcast,0,2012-12-07 11:55:00
7:30 AM,32.0,32.0,100,30.19,10.0,Calm,Calm,-,N/A,,Light Drizzle,0,2012-12-07 12:30:00
7:39 AM,32.0,30.2,93,30.19,10.0,Calm,Calm,-,N/A,,Overcast,0,2012-12-07 12:39:00
7:55 AM,32.7,31.3,94,30.19,10.0,Calm,Calm,-,0.00,,Overcast,0,2012-12-07 12:55:00
8:04 AM,32.0,32.0,100,30.19,9.0,NE,3.5,-,N/A,Rain,Light Rain,40,2012-12-07 13:04:00
8:17 AM,32.0,32.0,100,30.19,3.0,NE,4.6,-,N/A,Rain,Light Rain,50,2012-12-07 13:17:00
8:22 AM,32.0,32.0,100,30.19,2.5,NE,3.5,-,N/A,Rain,Light Rain,50,2012-12-07 13:22:00
8:26 AM,32.0,32.0,100,30.19,2.5,NE,3.5,-,N/A,Rain,Light Rain,50,2012-12-07 13:26:00
8:27 AM,32.0,32.0,100,30.19,3.0,NE,3.5,-,N/A,Rain,Light Rain,50,2012-12-07 13:27:00
8:55 AM,32.7,32.4,99,30.19,4.0,Calm,Calm,-,0.05,Rain,Light Rain,0,2012-12-07 13:55:00
9:55 AM,32.9,32.7,99,30.19,5.0,Calm,Calm,-,0.07,Rain,Light Rain,0,2012-12-07 14:55:00
10:08 AM,33.8,32.0,93,30.19,4.0,NE,3.5,-,N/A,Rain,Light Rain,40,2012-12-07 15:08:00
10:24 AM,33.8,33.8,100,30.19,2.5,Variable,3.5,-,N/A,Rain,Light Rain,0,2012-12-07 15:24:00
10:35 AM,33.8,33.8,100,30.19,3.0,Calm,Calm,-,N/A,Rain,Light Rain,0,2012-12-07 15:35:00
10:55 AM,33.6,33.4,99,30.17,2.5,Calm,Calm,-,0.08,Rain,Light Rain,0,2012-12-07 15:55:00
11:10 AM,33.8,33.8,100,30.17,3.0,NE,3.5,-,N/A,Rain,Light Rain,50,2012-12-07 16:10:00
11:20 AM,33.8,33.8,100,30.16,3.0,Variable,3.5,-,N/A,Rain,Light Rain,0,2012-12-07 16:20:00
11:22 AM,33.8,33.8,100,30.16,2.5,Calm,Calm,-,N/A,Rain,Light Rain,0,2012-12-07 16:22:00
11:55 AM,34.5,34.3,99,30.14,2.5,Calm,Calm,-,0.03,,Light Drizzle,0,2012-12-07 16:55:00
12:00 PM,33.8,33.8,100,30.14,3.0,NE,3.5,-,N/A,,Light Drizzle,40,2012-12-07 17:00:00
12:11 PM,35.6,33.8,93,30.13,2.5,Calm,Calm,-,N/A,,Light Drizzle,0,2012-12-07 17:11:00
12:22 PM,35.6,33.8,93,30.13,2.5,ENE,3.5,-,N/A,,Overcast,70,2012-12-07 17:22:00
12:27 PM,35.6,35.6,100,30.12,3.0,NE,3.5,-,N/A,,Overcast,50,2012-12-07 17:27:00
12:55 PM,35.4,35.2,99,30.11,3.0,ENE,3.5,-,0.00,,Overcast,60,2012-12-07 17:55:00
1:06 PM,35.6,35.6,100,30.11,3.0,Calm,Calm,-,N/A,Rain,Light Rain,0,2012-12-07 18:06:00
1:18 PM,35.6,35.6,100,30.10,4.0,NE,3.5,-,N/A,,Overcast,40,2012-12-07 18:18:00
1:22 PM,35.6,35.6,100,30.10,4.0,NNE,3.5,-,N/A,,Light Drizzle,20,2012-12-07 18:22:00
1:53 PM,35.6,35.6,100,30.08,2.5,Calm,Calm,-,N/A,Rain,Light Rain,0,2012-12-07 18:53:00
1:55 PM,36.1,36.0,99,30.08,2.5,Calm,Calm,-,0.01,Rain,Light Rain,0,2012-12-07 18:55:00
2:27 PM,37.4,35.6,93,30.09,2.5,NNE,3.5,-,N/A,Rain,Light Rain,30,2012-12-07 19:27:00
2:38 PM,37.4,35.6,93,30.09,2.5,Calm,Calm,-,N/A,Rain,Light Rain,0,2012-12-07 19:38:00
2:40 PM,37.4,35.6,93,30.09,3.0,Calm,Calm,-,N/A,Rain,Light Rain,0,2012-12-07 19:40:00
2:46 PM,37.4,37.4,100,30.09,3.0,Calm,Calm,-,N/A,Rain,Light Rain,0,2012-12-07 19:46:00
2:54 PM,37.4,37.4,100,30.08,2.5,Calm,Calm,-,N/A,Rain,Light Rain,0,2012-12-07 19:54:00
2:55 PM,36.9,36.7,99,30.08,2.5,Calm,Calm,-,0.04,Rain,Light Rain,0,2012-12-07 19:55:00
3:00 PM,37.4,37.4,100,30.08,2.5,Calm,Calm,-,N/A,Rain,Light Rain,0,2012-12-07 20:00:00
3:26 PM,37.4,37.4,100,30.09,2.0,Calm,Calm,-,N/A,Rain,Light Rain,0,2012-12-07 20:26:00
3:55 PM,37.2,36.9,99,30.08,2.5,Calm,Calm,-,0.04,Rain,Light Rain,0,2012-12-07 20:55:00
4:33 PM,37.4,37.4,100,30.08,2.5,NE,3.5,-,N/A,,Overcast,50,2012-12-07 21:33:00
5:00 PM,37.4,37.4,100,30.08,2.5,Calm,Calm,-,N/A,,Light Drizzle,0,2012-12-07 22:00:00
5:10 PM,37.4,37.4,100,30.08,2.5,Calm,Calm,-,N/A,,Overcast,0,2012-12-07 22:10:00
5:44 PM,37.4,37.4,100,30.08,2.5,Calm,Calm,-,N/A,,Light Drizzle,0,2012-12-07 22:44:00
5:54 PM,37.4,37.4,100,30.08,2.5,Calm,Calm,-,N/A,,Overcast,0,2012-12-07 22:54:00
5:55 PM,37.2,37.2,100,30.08,2.5,Calm,Calm,-,0.00,,Overcast,0,2012-12-07 22:55:00
6:18 PM,37.4,37.4,100,30.08,3.0,Calm,Calm,-,N/A,,Overcast,0,2012-12-07 23:18:00
6:55 PM,37.6,37.6,100,30.08,2.5,Calm,Calm,-,0.00,,Light Drizzle,0,2012-12-07 23:55:00
7:42 PM,37.4,37.4,100,30.07,2.5,Calm,Calm,-,N/A,,Light Drizzle,0,2012-12-08 00:42:00
7:55 PM,37.6,37.6,100,30.07,2.5,Calm,Calm,-,0.03,,Light Drizzle,0,2012-12-08 00:55:00
7:57 PM,37.4,37.4,100,30.08,3.0,Calm,Calm,-,N/A,,Light Drizzle,0,2012-12-08 00:57:00
8:04 PM,37.4,37.4,100,30.08,4.0,Calm,Calm,-,N/A,,Overcast,0,2012-12-08 01:04:00
8:08 PM,37.4,37.4,100,30.08,4.0,Calm,Calm,-,N/A,,Light Drizzle,0,2012-12-08 01:08:00
8:46 PM,37.4,37.4,100,30.07,4.0,Calm,Calm,-,N/A,,Overcast,0,2012-12-08 01:46:00
8:55 PM,38.1,38.1,100,30.06,3.0,NE,3.5,-,0.01,Rain,Light Rain,40,2012-12-08 01:55:00
8:59 PM,37.4,37.4,100,30.06,2.5,NE,3.5,-,N/A,Rain,Light Rain,40,2012-12-08 01:59:00
9:06 PM,37.4,37.4,100,30.06,3.0,ENE,3.5,-,N/A,,Light Drizzle,60,2012-12-08 02:06:00
9:09 PM,37.4,37.4,100,30.06,3.0,ENE,3.5,-,N/A,,Overcast,60,2012-12-08 02:09:00
9:33 PM,39.2,39.2,100,30.05,2.5,NE,3.5,-,N/A,,Overcast,40,2012-12-08 02:33:00
9:46 PM,39.2,39.2,100,30.04,3.0,Calm,Calm,-,N/A,,Overcast,0,2012-12-08 02:46:00
9:55 PM,38.3,38.3,100,30.04,3.0,Calm,Calm,-,0.01,,Overcast,0,2012-12-08 02:55:00
10:14 PM,39.2,39.2,100,30.03,4.0,Calm,Calm,-,N/A,,Overcast,0,2012-12-08 03:14:00
10:15 PM,39.2,39.2,100,30.03,4.0,Calm,Calm,-,N/A,,Overcast,0,2012-12-08 03:15:00
10:36 PM,39.2,39.2,100,30.04,4.0,Calm,Calm,-,N/A,,Overcast,0,2012-12-08 03:36:00
10:55 PM,38.5,38.5,100,30.03,3.0,Calm,Calm,-,N/A,,Overcast,0,2012-12-08 03:55:00
11:30 PM,39.2,39.2,100,30.02,4.0,Calm,Calm,-,N/A,,Overcast,0,2012-12-08 04:30:00
11:38 PM,39.2,39.2,100,30.02,4.0,Calm,Calm,-,N/A,,Overcast,0,2012-12-08 04:38:00
11:55 PM,38.7,38.7,100,30.01,4.0,Calm,Calm,-,N/A,,Overcast,0,2012-12-08 04:55:00